Back to catalog

STARLINK-37478

AliveCommunicationsVLEO
NORAD 69260·PAYLOAD·🇺🇸 United States

Launched May 29, 2026 from Cape Canaveral Space Force Station

Loading…

Next Passes (next 24 hours)

TLE

FreshSource: CelesTrak SupGP

Epoch: Sep 14, 2026, 15:19 UTC

1 69260C 26117Y   26257.63868056  .00066856  00000+0  19758-2 0  2573
2 69260  53.1576 181.4086 0001311 107.0519 249.7815 15.34348400    18

Track STARLINK-37478 in real time with AllMySat

Download on the App Store